KUIPER-00213

Last updated on Sun Mar 15 2026 00:02:06 GMT+0000 (Coordinated Universal Time)

1 67777U 26030P 26073.56235142 .00031573 00000+0 99093-3 0 9992 2 67777 51.8792 196.2123 0015075 79.4484 280.8198 15.32648385 5833
UTC large
Height (km)
Speed (km/s)
/
Latitude / Longitude
Inclination (degrees)
Orbital Period (minutes)
Azimuth
Elevation
Range (km)
Doppler Factor

Next 0 passes for location: London (51.5072 / 0.1276)

Sorry there are no passes over London.